Regional Weather Roundup
Issued by NWS Cleveland, OH

Home | Current Version | Previous Version | Graphics & Text | Print | Product List | Glossary On
Versions: 1 2 3 4 5 6 7 8 9 10 11 12 13 14 15 16 17 18 19 20 21 22 23 24 25 26 27 28 29 30 31 32 33 34 35 36 37 38 39 40 41 42 43 44 45 46 47 48 49 50
000
ASUS41 KCLE 282210
RWRCLE
OHIO REGIONAL WEATHER ROUNDUP
NATIONAL WEATHER SERVICE WILMINGTON, OH
600 PM EDT MON JUL 28 2014

NOTE: "FAIR" INDICATES FEW OR NO CLOUDS BELOW 12,000 FEET WITH NO
SIGNIFICANT WEATHER AND/OR OBSTRUCTIONS TO VISIBILITY.

OHZ001>008-015>018-024>027-034-035-043-044-282300-
   NORTHWEST OHIO

CITY           SKY/WX    TMP DP  RH WIND       PRES   REMARKS
DEFIANCE       CLOUDY    73  55  53 W9        29.96R
FINDLAY        CLOUDY    73  53  49 N9        29.93F
TOLEDO EXPRESS PTSUNNY   70  52  52 N9        29.95R
TOLEDO METCALF PTSUNNY   72  48  42 NW13      29.95R
LIMA           PTSUNNY   71  55  56 NW12      29.96R
$$

OHZ009>014-019>023-028>033-038-089-282300-
   NORTHEAST OHIO

CITY           SKY/WX    TMP DP  RH WIND       PRES   REMARKS
CLE-HOPKINS    PTSUNNY   65  52  62 NW15      29.96R
CLE-LAKEFRONT  MOSUNNY   66  53  63 N18       29.92R
CUY CO. ARPT   PTSUNNY   61  54  77 N17       29.93R
LORAIN-ELYRIA  CLOUDY    67  54  63 NE14      29.95R
ASHTABULA      CLOUDY    62  52  69 NW9G22    29.91R
AKRON-CANTON   PTSUNNY   65  53  65 N13       29.92R
WOOSTER        PTSUNNY   67  52  58 N15G21    29.94R
MANSFIELD      CLOUDY    67  52  58 NW10      29.94S
YOUNGSTOWN     CLOUDY    62  54  74 NW18G24   29.90R
$$

OHZ042-051>053-060>062-070>072-077>081-282300-
  SOUTHWEST OHIO

CITY           SKY/WX    TMP DP  RH WIND       PRES   REMARKS
CINC-COVINGTON MOSUNNY   73  57  57 NW14      29.98S
CINC-LUNKEN    SUNNY     73  58  59 W10       29.97R
HAMILTON       MOSUNNY   73  56  54 NW14G21   29.97S
DAYTON         MOSUNNY   74  53  48 NW14      29.98R
WRIGHT-PAT AFB MOSUNNY   73  56  57 NW14      29.96R
DAYTON GENERAL SUNNY     74  53  48 NW12      29.96R
WILMINGTON     PTSUNNY   71  55  56 N12       29.96R
$$

OHZ036-037-039>041-045>050-054>059-063>069-073>076-082>088-282300-
  CENTRAL AND SOUTHEAST OHIO

CITY           SKY/WX    TMP DP  RH WIND       PRES   REMARKS
COLUMBUS       PTSUNNY   74  54  49 NW13      29.92R
OSU AIRPORT    PTSUNNY   73  55  53 NW13G20   29.93S
BOLTON FIELD   CLOUDY    70  57  64 NW8       29.94S
RICKENBACK AFB   N/A     75  50  41 NW12      29.92S
NEWARK         PTSUNNY   71  54  54 N10       29.92R
MARION         CLOUDY    70  53  54 N10       29.94S
LANCASTER      PTSUNNY   72  55  55 N8        29.93R
ZANESVILLE     PTSUNNY   71  55  56 N8        29.91S
NEW PHILLY     PTSUNNY   67  53  61 NW12G23   29.92R
$$


USA.gov is the U.S. government's official web portal to all federal, state and local government web resources and services.